Year,Month,Day,Hour,Minute,Value (Times are PST for temperature in C)
2019,05,22,00,00,14.10
2019,05,22,00,01,14.10
2019,05,22,00,02,14.10
2019,05,22,00,03,14.10
2019,05,22,00,04,14.10
2019,05,22,00,05,14.10
2019,05,22,00,06,14.00
2019,05,22,00,07,14.00
2019,05,22,00,08,13.90
2019,05,22,00,09,13.90
2019,05,22,00,10,13.90
2019,05,22,00,11,13.90
2019,05,22,00,12,13.80
2019,05,22,00,13,13.80
2019,05,22,00,14,13.80
2019,05,22,00,15,13.80
2019,05,22,00,16,13.70
2019,05,22,00,17,13.70
2019,05,22,00,18,13.80
2019,05,22,00,19,13.80
2019,05,22,00,20,13.70
2019,05,22,00,21,13.70
2019,05,22,00,22,13.70
2019,05,22,00,23,13.70
2019,05,22,00,24,13.70
2019,05,22,00,25,13.70
2019,05,22,00,26,13.60
2019,05,22,00,27,13.60
2019,05,22,00,28,13.60
2019,05,22,00,29,13.60
2019,05,22,00,30,13.50
2019,05,22,00,31,13.50
2019,05,22,00,32,13.40
2019,05,22,00,33,13.40
2019,05,22,00,34,13.40
2019,05,22,00,35,13.40
2019,05,22,00,36,13.30
2019,05,22,00,37,13.30
2019,05,22,00,38,13.30
2019,05,22,00,39,13.30
2019,05,22,00,40,13.30
2019,05,22,00,41,13.30
2019,05,22,00,42,13.30
2019,05,22,00,43,13.30
2019,05,22,00,44,13.30
2019,05,22,00,45,13.20
2019,05,22,00,46,13.20
2019,05,22,00,47,13.20
2019,05,22,00,48,13.20
2019,05,22,00,49,13.20
2019,05,22,00,50,13.20
2019,05,22,00,51,13.20
2019,05,22,00,52,13.20
2019,05,22,00,53,13.10
2019,05,22,00,54,13.10
2019,05,22,00,55,13.10
2019,05,22,00,56,13.10
2019,05,22,00,57,13.10
2019,05,22,00,58,13.00
2019,05,22,00,59,13.00
2019,05,22,01,00,13.00
2019,05,22,01,01,12.90
2019,05,22,01,02,12.90
2019,05,22,01,03,12.90
2019,05,22,01,04,12.90
2019,05,22,01,05,12.80
2019,05,22,01,06,12.80
2019,05,22,01,07,12.80
2019,05,22,01,08,12.80
2019,05,22,01,09,12.80
2019,05,22,01,10,12.80
2019,05,22,01,11,12.80
2019,05,22,01,12,12.70
2019,05,22,01,13,12.70
2019,05,22,01,14,12.70
2019,05,22,01,15,12.70
2019,05,22,01,16,12.60
2019,05,22,01,17,12.60
2019,05,22,01,18,12.60
2019,05,22,01,19,12.60
2019,05,22,01,20,12.50
2019,05,22,01,21,12.50
2019,05,22,01,22,12.40
2019,05,22,01,23,12.40
2019,05,22,01,24,12.40
2019,05,22,01,25,12.40
2019,05,22,01,26,12.40
2019,05,22,01,27,12.40
2019,05,22,01,28,12.30
2019,05,22,01,29,12.30
2019,05,22,01,30,12.30
2019,05,22,01,31,12.30
2019,05,22,01,32,12.30
2019,05,22,01,33,12.30
2019,05,22,01,34,12.30
2019,05,22,01,35,12.20
2019,05,22,01,36,12.20
2019,05,22,01,37,12.20
2019,05,22,01,38,12.20
2019,05,22,01,39,12.20
2019,05,22,01,40,12.20
2019,05,22,01,41,12.10
2019,05,22,01,42,12.10
2019,05,22,01,43,12.10
2019,05,22,01,44,12.10
2019,05,22,01,45,12.10
2019,05,22,01,46,12.10
2019,05,22,01,47,12.00
2019,05,22,01,48,12.00
2019,05,22,01,49,12.00
2019,05,22,01,50,11.90
2019,05,22,01,51,11.90
2019,05,22,01,52,11.90
2019,05,22,01,53,11.90
2019,05,22,01,54,11.90
2019,05,22,01,55,11.90
2019,05,22,01,56,11.90
2019,05,22,01,57,11.90
2019,05,22,01,58,11.90
2019,05,22,01,59,11.90
2019,05,22,02,00,11.80
2019,05,22,02,01,11.80
2019,05,22,02,02,11.80
2019,05,22,02,03,11.80
2019,05,22,02,04,11.80
2019,05,22,02,05,11.80
2019,05,22,02,06,11.80
2019,05,22,02,07,11.80
2019,05,22,02,08,11.70
2019,05,22,02,09,11.70
2019,05,22,02,10,11.70
2019,05,22,02,11,11.70
2019,05,22,02,12,11.70
2019,05,22,02,13,11.70
2019,05,22,02,14,11.70
2019,05,22,02,15,11.70
2019,05,22,02,16,11.60
2019,05,22,02,17,11.60
2019,05,22,02,18,11.60
2019,05,22,02,19,11.60
2019,05,22,02,20,11.60
2019,05,22,02,21,11.60
2019,05,22,02,22,11.50
2019,05,22,02,23,11.50
2019,05,22,02,24,11.50
2019,05,22,02,25,11.50
2019,05,22,02,26,11.50
2019,05,22,02,27,11.40
2019,05,22,02,28,11.40
2019,05,22,02,29,11.40
2019,05,22,02,30,11.50
2019,05,22,02,31,11.50
2019,05,22,02,32,11.50
2019,05,22,02,33,11.50
2019,05,22,02,34,11.50
2019,05,22,02,35,11.50
2019,05,22,02,36,11.50
2019,05,22,02,37,11.50
2019,05,22,02,38,11.50
2019,05,22,02,39,11.50
2019,05,22,02,40,11.50
2019,05,22,02,41,11.50
2019,05,22,02,42,11.50
2019,05,22,02,43,11.60
2019,05,22,02,44,11.60
2019,05,22,02,45,11.60
2019,05,22,02,46,11.50
2019,05,22,02,47,11.50
2019,05,22,02,48,11.50
2019,05,22,02,49,11.50
2019,05,22,02,50,11.50
2019,05,22,02,51,11.50
2019,05,22,02,52,11.50
2019,05,22,02,53,11.50
2019,05,22,02,54,11.40
2019,05,22,02,55,11.40
2019,05,22,02,56,11.40
2019,05,22,02,57,11.40
2019,05,22,02,58,11.40
2019,05,22,02,59,11.40
2019,05,22,03,00,11.40
2019,05,22,03,01,11.40
2019,05,22,03,02,11.40
2019,05,22,03,03,11.30
2019,05,22,03,04,11.30
2019,05,22,03,05,11.30
2019,05,22,03,06,11.30
2019,05,22,03,07,11.30
2019,05,22,03,08,11.30
2019,05,22,03,09,11.30
2019,05,22,03,10,11.20
2019,05,22,03,11,11.20
2019,05,22,03,12,11.20
2019,05,22,03,13,11.20
2019,05,22,03,14,11.20
2019,05,22,03,15,11.20
2019,05,22,03,16,11.20
2019,05,22,03,17,11.10
2019,05,22,03,18,11.10
2019,05,22,03,19,11.10
2019,05,22,03,20,11.10
2019,05,22,03,21,11.10
2019,05,22,03,22,11.10
2019,05,22,03,23,11.10
2019,05,22,03,24,11.00
2019,05,22,03,25,11.00
2019,05,22,03,26,11.00
2019,05,22,03,27,11.00
2019,05,22,03,28,11.00
2019,05,22,03,29,10.90
2019,05,22,03,30,10.90
2019,05,22,03,31,10.90
2019,05,22,03,32,10.90
2019,05,22,03,33,10.90
2019,05,22,03,34,10.90
2019,05,22,03,35,10.90
2019,05,22,03,36,10.90
2019,05,22,03,37,10.90
2019,05,22,03,38,10.90
2019,05,22,03,39,10.80
2019,05,22,03,40,10.80
2019,05,22,03,41,10.80
2019,05,22,03,42,10.80
2019,05,22,03,43,10.80
2019,05,22,03,44,10.80
2019,05,22,03,45,10.80
2019,05,22,03,46,10.80
2019,05,22,03,47,10.80
2019,05,22,03,48,10.80
2019,05,22,03,49,10.80
2019,05,22,03,50,10.80
2019,05,22,03,51,10.80
2019,05,22,03,52,10.80
2019,05,22,03,53,10.80
2019,05,22,03,54,10.80
2019,05,22,03,55,10.80
2019,05,22,03,56,10.80
2019,05,22,03,57,10.80
2019,05,22,03,58,10.80
2019,05,22,03,59,10.80
2019,05,22,04,00,10.80
2019,05,22,04,01,10.80
2019,05,22,04,02,10.80
2019,05,22,04,03,10.80
2019,05,22,04,04,10.80
2019,05,22,04,05,10.80
2019,05,22,04,06,10.80
2019,05,22,04,07,10.80
2019,05,22,04,08,10.80
2019,05,22,04,09,10.80
2019,05,22,04,10,10.70
2019,05,22,04,11,10.70
2019,05,22,04,12,10.70
2019,05,22,04,13,10.70
2019,05,22,04,14,10.70
2019,05,22,04,15,10.70
2019,05,22,04,16,10.70
2019,05,22,04,17,10.70
2019,05,22,04,18,10.70
2019,05,22,04,19,10.70
2019,05,22,04,20,10.70
2019,05,22,04,21,10.70
2019,05,22,04,22,10.70
2019,05,22,04,23,10.70
2019,05,22,04,24,10.70
2019,05,22,04,25,10.70
2019,05,22,04,26,10.70
2019,05,22,04,27,10.60
2019,05,22,04,28,10.60
2019,05,22,04,29,10.60
2019,05,22,04,30,10.60
2019,05,22,04,31,10.60
2019,05,22,04,32,10.60
2019,05,22,04,33,10.60
2019,05,22,04,34,10.60
2019,05,22,04,35,10.60
2019,05,22,04,36,10.60
2019,05,22,04,37,10.60
2019,05,22,04,38,10.60
2019,05,22,04,39,10.60
2019,05,22,04,40,10.60
2019,05,22,04,41,10.60
2019,05,22,04,42,10.60
2019,05,22,04,43,10.60
2019,05,22,04,44,10.60
2019,05,22,04,45,10.60
2019,05,22,04,46,10.60
2019,05,22,04,47,10.50
2019,05,22,04,48,10.50
2019,05,22,04,49,10.50
2019,05,22,04,50,10.50
2019,05,22,04,51,10.50
2019,05,22,04,52,10.50
2019,05,22,04,53,10.50
2019,05,22,04,54,10.50
2019,05,22,04,55,10.50
2019,05,22,04,56,10.50
2019,05,22,04,57,10.40
2019,05,22,04,58,10.40
2019,05,22,04,59,10.40
2019,05,22,05,00,10.40
2019,05,22,05,01,10.40
2019,05,22,05,02,10.40
2019,05,22,05,03,10.40
2019,05,22,05,04,10.40
2019,05,22,05,05,10.40
2019,05,22,05,06,10.40
2019,05,22,05,07,10.40
2019,05,22,05,08,10.40
2019,05,22,05,09,10.40
2019,05,22,05,10,10.30
2019,05,22,05,11,10.30
2019,05,22,05,12,10.30
2019,05,22,05,13,10.30
2019,05,22,05,14,10.30
2019,05,22,05,15,10.30
2019,05,22,05,16,10.30
2019,05,22,05,17,10.30
2019,05,22,05,18,10.30
2019,05,22,05,19,10.30
2019,05,22,05,20,10.20
2019,05,22,05,21,10.20
2019,05,22,05,22,10.20
2019,05,22,05,23,10.20
2019,05,22,05,24,10.20
2019,05,22,05,25,10.20
2019,05,22,05,26,10.20
2019,05,22,05,27,10.20
2019,05,22,05,28,10.20
2019,05,22,05,29,10.20
2019,05,22,05,30,10.20
2019,05,22,05,31,10.20
2019,05,22,05,32,10.20
2019,05,22,05,33,10.10
2019,05,22,05,34,10.10
2019,05,22,05,35,10.10
2019,05,22,05,36,10.10
2019,05,22,05,37,10.10
2019,05,22,05,38,10.10
2019,05,22,05,39,10.10
2019,05,22,05,40,10.10
2019,05,22,05,41,10.10
2019,05,22,05,42,10.10
2019,05,22,05,43,10.10
2019,05,22,05,44,10.10
2019,05,22,05,45,10.10
2019,05,22,05,46,10.10
2019,05,22,05,47,10.10
2019,05,22,05,48,10.10
2019,05,22,05,49,10.10
2019,05,22,05,50,10.10
2019,05,22,05,51,10.10
2019,05,22,05,52,10.10
2019,05,22,05,53,10.10
2019,05,22,05,54,10.10
2019,05,22,05,55,10.10
2019,05,22,05,56,10.10
2019,05,22,05,57,10.10
2019,05,22,05,58,10.10
2019,05,22,05,59,10.10
2019,05,22,06,00,10.10
2019,05,22,06,01,10.10
2019,05,22,06,02,10.10
2019,05,22,06,03,10.10
2019,05,22,06,04,10.10
2019,05,22,06,05,10.10
2019,05,22,06,06,10.10
2019,05,22,06,07,10.10
2019,05,22,06,08,10.10
2019,05,22,06,09,10.10
2019,05,22,06,10,10.10
2019,05,22,06,11,10.10
2019,05,22,06,12,10.10
2019,05,22,06,13,10.10
2019,05,22,06,14,10.10
2019,05,22,06,15,10.10
2019,05,22,06,16,10.10
2019,05,22,06,17,10.10
2019,05,22,06,18,10.10
2019,05,22,06,19,10.10
2019,05,22,06,20,10.10
2019,05,22,06,21,10.10
2019,05,22,06,22,10.10
2019,05,22,06,23,10.10
2019,05,22,06,24,10.10
2019,05,22,06,25,10.10
2019,05,22,06,26,10.10
2019,05,22,06,27,10.10
2019,05,22,06,28,10.10
2019,05,22,06,29,10.10
2019,05,22,06,30,10.20
2019,05,22,06,31,10.20
2019,05,22,06,32,10.20
2019,05,22,06,33,10.20
2019,05,22,06,34,10.20
2019,05,22,06,35,10.30
2019,05,22,06,36,10.30
2019,05,22,06,37,10.30
2019,05,22,06,38,10.30
2019,05,22,06,39,10.40
2019,05,22,06,40,10.40
2019,05,22,06,41,10.50
2019,05,22,06,42,10.50
2019,05,22,06,43,10.60
2019,05,22,06,44,10.60
2019,05,22,06,45,10.70
2019,05,22,06,46,10.70
2019,05,22,06,47,10.80
2019,05,22,06,48,10.80
2019,05,22,06,49,10.80
2019,05,22,06,50,10.90
2019,05,22,06,51,11.00
2019,05,22,06,52,11.10
2019,05,22,06,53,11.10
2019,05,22,06,54,11.20
2019,05,22,06,55,11.30
2019,05,22,06,56,11.30
2019,05,22,06,57,11.40
2019,05,22,06,58,11.60
2019,05,22,06,59,11.60
2019,05,22,07,00,11.70
2019,05,22,07,01,11.80
2019,05,22,07,02,11.90
2019,05,22,07,03,12.00
2019,05,22,07,04,12.10
2019,05,22,07,05,12.10
2019,05,22,07,06,12.20
2019,05,22,07,07,12.20
2019,05,22,07,08,12.30
2019,05,22,07,09,12.30
2019,05,22,07,10,12.40
2019,05,22,07,11,12.40
2019,05,22,07,12,12.40
2019,05,22,07,13,12.40
2019,05,22,07,14,12.40
2019,05,22,07,15,12.50
2019,05,22,07,16,12.50
2019,05,22,07,17,12.50
2019,05,22,07,18,12.60
2019,05,22,07,19,12.60
2019,05,22,07,20,12.60
2019,05,22,07,21,12.60
2019,05,22,07,22,12.70
2019,05,22,07,23,12.70
2019,05,22,07,24,12.70
2019,05,22,07,25,12.80
2019,05,22,07,26,12.80
2019,05,22,07,27,12.90
2019,05,22,07,28,12.90
2019,05,22,07,29,13.00
2019,05,22,07,30,13.10
2019,05,22,07,31,13.10
2019,05,22,07,32,13.10
2019,05,22,07,33,13.20
2019,05,22,07,34,13.20
2019,05,22,07,35,13.30
2019,05,22,07,36,13.30
2019,05,22,07,37,13.40
2019,05,22,07,38,13.50
2019,05,22,07,39,13.60
2019,05,22,07,40,13.70
2019,05,22,07,41,13.80
2019,05,22,07,42,13.80
2019,05,22,07,43,13.90
2019,05,22,07,44,13.90
2019,05,22,07,45,13.90
2019,05,22,07,46,13.90
2019,05,22,07,47,14.00
2019,05,22,07,48,14.00
2019,05,22,07,49,14.10
2019,05,22,07,50,14.10
2019,05,22,07,51,14.10
2019,05,22,07,52,14.20
2019,05,22,07,53,14.20
2019,05,22,07,54,14.30
2019,05,22,07,55,14.30
2019,05,22,07,56,14.40
2019,05,22,07,57,14.40
2019,05,22,07,58,14.60
2019,05,22,07,59,14.60
2019,05,22,08,00,14.70
2019,05,22,08,01,14.80
2019,05,22,08,02,14.90
2019,05,22,08,03,15.00
2019,05,22,08,04,15.10
2019,05,22,08,05,15.20
2019,05,22,08,06,15.20
2019,05,22,08,07,15.30
2019,05,22,08,08,15.30
2019,05,22,08,09,15.40
2019,05,22,08,10,15.40
2019,05,22,08,11,15.40
2019,05,22,08,12,15.40
2019,05,22,08,13,15.50
2019,05,22,08,14,15.50
2019,05,22,08,15,15.60
2019,05,22,08,16,15.60
2019,05,22,08,17,15.70
2019,05,22,08,18,15.70
2019,05,22,08,19,15.80
2019,05,22,08,20,15.80
2019,05,22,08,21,15.80
2019,05,22,08,22,15.80
2019,05,22,08,23,15.80
2019,05,22,08,24,15.80
2019,05,22,08,25,15.70
2019,05,22,08,26,15.80
2019,05,22,08,27,15.80
2019,05,22,08,28,15.80
2019,05,22,08,29,15.80
2019,05,22,08,30,15.80
2019,05,22,08,31,15.90
2019,05,22,08,32,15.90
2019,05,22,08,33,15.90
2019,05,22,08,34,15.90
2019,05,22,08,35,15.90
2019,05,22,08,36,15.90
2019,05,22,08,37,16.00
2019,05,22,08,38,16.00
2019,05,22,08,39,16.00
2019,05,22,08,40,16.00
2019,05,22,08,41,16.10
2019,05,22,08,42,16.10
2019,05,22,08,43,16.10
2019,05,22,08,44,16.10
2019,05,22,08,45,16.10
2019,05,22,08,46,16.10
2019,05,22,08,47,16.10
2019,05,22,08,48,16.00
2019,05,22,08,49,16.00
2019,05,22,08,50,16.00
2019,05,22,08,51,15.90
2019,05,22,08,52,15.90
2019,05,22,08,53,15.90
2019,05,22,08,54,15.90
2019,05,22,08,55,16.00
2019,05,22,08,56,16.10
2019,05,22,08,57,16.10
2019,05,22,08,58,16.20
2019,05,22,08,59,16.20
2019,05,22,09,00,16.30
2019,05,22,09,01,16.40
2019,05,22,09,02,16.40
2019,05,22,09,03,16.50
2019,05,22,09,04,16.60
2019,05,22,09,05,16.70
2019,05,22,09,06,16.70
2019,05,22,09,07,16.70
2019,05,22,09,08,16.70
2019,05,22,09,09,16.70
2019,05,22,09,10,16.70
2019,05,22,09,11,16.80
2019,05,22,09,12,16.80
2019,05,22,09,13,16.80
2019,05,22,09,14,16.90
2019,05,22,09,15,17.00
2019,05,22,09,16,17.10
2019,05,22,09,17,17.10
2019,05,22,09,18,17.20
2019,05,22,09,19,17.30
2019,05,22,09,20,17.30
2019,05,22,09,21,17.40
2019,05,22,09,22,17.40
2019,05,22,09,23,17.40
2019,05,22,09,24,17.40
2019,05,22,09,25,17.40
2019,05,22,09,26,17.30
2019,05,22,09,27,17.30
2019,05,22,09,28,17.30
2019,05,22,09,29,17.30
2019,05,22,09,30,17.30
2019,05,22,09,31,17.40
2019,05,22,09,32,17.50
2019,05,22,09,33,17.60
2019,05,22,09,34,17.60
2019,05,22,09,35,17.60
2019,05,22,09,36,17.60
2019,05,22,09,37,17.70
2019,05,22,09,38,17.70
2019,05,22,09,39,17.70
2019,05,22,09,40,17.80
2019,05,22,09,41,17.80
2019,05,22,09,42,17.80
2019,05,22,09,43,17.80
2019,05,22,09,44,17.80
2019,05,22,09,45,17.80
2019,05,22,09,46,17.80
2019,05,22,09,47,17.80
2019,05,22,09,48,17.90
2019,05,22,09,49,18.00
2019,05,22,09,50,18.10
2019,05,22,09,51,18.10
2019,05,22,09,52,18.20
2019,05,22,09,53,18.20
2019,05,22,09,54,18.20
2019,05,22,09,55,18.30
2019,05,22,09,56,18.30
2019,05,22,09,57,18.30
2019,05,22,09,58,18.30
2019,05,22,09,59,18.30
2019,05,22,10,00,18.30
2019,05,22,10,01,18.40
2019,05,22,10,02,18.40
2019,05,22,10,03,18.50
2019,05,22,10,04,18.60
2019,05,22,10,05,18.60
2019,05,22,10,06,18.70
2019,05,22,10,07,18.70
2019,05,22,10,08,18.80
2019,05,22,10,09,18.80
2019,05,22,10,10,18.80
2019,05,22,10,11,18.80
2019,05,22,10,12,18.80
2019,05,22,10,13,18.80
2019,05,22,10,14,18.80
2019,05,22,10,15,18.90
2019,05,22,10,16,18.90
2019,05,22,10,17,18.90
2019,05,22,10,18,18.90
2019,05,22,10,19,18.90
2019,05,22,10,20,19.10
2019,05,22,10,21,19.10
2019,05,22,10,22,19.20
2019,05,22,10,23,19.20
2019,05,22,10,24,19.30
2019,05,22,10,25,19.30
2019,05,22,10,26,19.30
2019,05,22,10,27,19.30
2019,05,22,10,28,19.30
2019,05,22,10,29,19.30
2019,05,22,10,30,19.30
2019,05,22,10,31,19.30
2019,05,22,10,32,19.30
2019,05,22,10,33,19.30
2019,05,22,10,34,19.30
2019,05,22,10,35,19.30
2019,05,22,10,36,19.40
2019,05,22,10,37,19.50
2019,05,22,10,38,19.60
2019,05,22,10,39,19.70
2019,05,22,10,40,19.80
2019,05,22,10,41,19.80
2019,05,22,10,42,19.80
2019,05,22,10,43,19.80
2019,05,22,10,44,19.90
2019,05,22,10,45,19.90
2019,05,22,10,46,20.00
2019,05,22,10,47,20.00
2019,05,22,10,48,19.90
2019,05,22,10,49,19.90
2019,05,22,10,50,19.90
2019,05,22,10,51,19.90
2019,05,22,10,52,19.90
2019,05,22,10,53,20.10
2019,05,22,10,54,20.10
2019,05,22,10,55,20.20
2019,05,22,10,56,20.30
2019,05,22,10,57,20.40
2019,05,22,10,58,20.40
2019,05,22,10,59,20.50
2019,05,22,11,00,20.60
2019,05,22,11,01,20.50
2019,05,22,11,02,20.50
2019,05,22,11,03,20.50
2019,05,22,11,04,20.60
2019,05,22,11,05,20.60
2019,05,22,11,06,20.50
2019,05,22,11,07,20.60
2019,05,22,11,08,20.60
2019,05,22,11,09,20.70
2019,05,22,11,10,20.70
2019,05,22,11,11,20.80
2019,05,22,11,12,20.90
2019,05,22,11,13,21.10
2019,05,22,11,14,21.20
2019,05,22,11,15,21.20
2019,05,22,11,16,21.30
2019,05,22,11,17,21.30
2019,05,22,11,18,21.30
2019,05,22,11,19,21.30
2019,05,22,11,20,21.30
2019,05,22,11,21,21.40
2019,05,22,11,22,21.40
2019,05,22,11,23,21.30
2019,05,22,11,24,21.20
2019,05,22,11,25,21.20
2019,05,22,11,26,21.20
2019,05,22,11,27,21.20
2019,05,22,11,28,21.30
2019,05,22,11,29,21.40
2019,05,22,11,30,21.60
2019,05,22,11,31,21.70
2019,05,22,11,32,21.70
2019,05,22,11,33,21.80
2019,05,22,11,34,21.80
2019,05,22,11,35,21.80
2019,05,22,11,36,21.80
2019,05,22,11,37,21.70
2019,05,22,11,38,21.60
2019,05,22,11,39,21.50
2019,05,22,11,40,21.50
2019,05,22,11,41,21.40
2019,05,22,11,42,21.50
2019,05,22,11,43,21.60
2019,05,22,11,44,21.60
2019,05,22,11,45,21.70
2019,05,22,11,46,21.80
2019,05,22,11,47,21.90
2019,05,22,11,48,22.10
2019,05,22,11,49,22.30
2019,05,22,11,50,22.40
2019,05,22,11,51,22.60
2019,05,22,11,52,22.70
2019,05,22,11,53,22.80
2019,05,22,11,54,22.80
2019,05,22,11,55,22.80
2019,05,22,11,56,22.70
2019,05,22,11,57,22.70
2019,05,22,11,58,22.70
2019,05,22,11,59,22.70
2019,05,22,12,00,22.80
2019,05,22,12,01,23.00
2019,05,22,12,02,23.10
2019,05,22,12,03,23.20
2019,05,22,12,04,23.20
2019,05,22,12,05,23.20
2019,05,22,12,06,23.30
2019,05,22,12,07,23.30
2019,05,22,12,08,23.30
2019,05,22,12,09,23.20
2019,05,22,12,10,23.20
2019,05,22,12,11,23.20
2019,05,22,12,12,23.20
2019,05,22,12,13,23.20
2019,05,22,12,14,23.30
2019,05,22,12,15,23.30
2019,05,22,12,16,23.30
2019,05,22,12,17,23.40
2019,05,22,12,18,23.40
2019,05,22,12,19,23.60
2019,05,22,12,20,23.70
2019,05,22,12,21,23.80
2019,05,22,12,22,23.90
2019,05,22,12,23,23.80
2019,05,22,12,24,23.80
2019,05,22,12,25,23.70
2019,05,22,12,26,23.70
2019,05,22,12,27,23.70
2019,05,22,12,28,23.60
2019,05,22,12,29,23.60
2019,05,22,12,30,23.70
2019,05,22,12,31,23.70
2019,05,22,12,32,23.70
2019,05,22,12,33,23.60
2019,05,22,12,34,23.60
2019,05,22,12,35,23.60
2019,05,22,12,36,23.70
2019,05,22,12,37,23.90
2019,05,22,12,38,24.00
2019,05,22,12,39,24.20
2019,05,22,12,40,24.20
2019,05,22,12,41,24.30
2019,05,22,12,42,24.30
2019,05,22,12,43,24.40
2019,05,22,12,44,24.50
2019,05,22,12,45,24.50
2019,05,22,12,46,24.60
2019,05,22,12,47,24.60
2019,05,22,12,48,24.70
2019,05,22,12,49,24.70
2019,05,22,12,50,24.80
2019,05,22,12,51,24.80
2019,05,22,12,52,24.70
2019,05,22,12,53,24.70
2019,05,22,12,54,24.60
2019,05,22,12,55,24.70
2019,05,22,12,56,24.70
2019,05,22,12,57,24.80
2019,05,22,12,58,24.90
2019,05,22,12,59,24.90
2019,05,22,13,00,24.90
2019,05,22,13,01,24.90
2019,05,22,13,02,25.00
2019,05,22,13,03,25.00
2019,05,22,13,04,25.10
2019,05,22,13,05,25.20
2019,05,22,13,06,25.30
2019,05,22,13,07,25.40
2019,05,22,13,08,25.40
2019,05,22,13,09,25.50
2019,05,22,13,10,25.60
2019,05,22,13,11,25.60
2019,05,22,13,12,25.70
2019,05,22,13,13,25.80
2019,05,22,13,14,25.80
2019,05,22,13,15,25.80
2019,05,22,13,16,25.70
2019,05,22,13,17,25.70
2019,05,22,13,18,25.80
2019,05,22,13,19,25.80
2019,05,22,13,20,25.90
2019,05,22,13,21,26.00
2019,05,22,13,22,26.10
2019,05,22,13,23,26.20
2019,05,22,13,24,26.30
2019,05,22,13,25,26.30
2019,05,22,13,26,26.30
2019,05,22,13,27,26.30
2019,05,22,13,28,26.30
2019,05,22,13,29,26.30
2019,05,22,13,30,26.30
2019,05,22,13,31,26.30
2019,05,22,13,32,26.30
2019,05,22,13,33,26.40
2019,05,22,13,34,26.60
2019,05,22,13,35,26.70
2019,05,22,13,36,26.70
2019,05,22,13,37,26.70
2019,05,22,13,38,26.80
2019,05,22,13,39,26.80
2019,05,22,13,40,26.80
2019,05,22,13,41,26.90
2019,05,22,13,42,26.90
2019,05,22,13,43,26.90
2019,05,22,13,44,26.90
2019,05,22,13,45,26.90
2019,05,22,13,46,27.00
2019,05,22,13,47,27.10
2019,05,22,13,48,27.10
2019,05,22,13,49,27.10
2019,05,22,13,50,27.20
2019,05,22,13,51,27.20
2019,05,22,13,52,27.30
2019,05,22,13,53,27.40
2019,05,22,13,54,27.60
2019,05,22,13,55,27.70
2019,05,22,13,56,27.70
2019,05,22,13,57,27.80
2019,05,22,13,58,27.80
2019,05,22,13,59,27.80
2019,05,22,14,00,27.80
2019,05,22,14,01,27.80
2019,05,22,14,02,27.70
2019,05,22,14,03,27.70
2019,05,22,14,04,27.80
2019,05,22,14,05,27.70
2019,05,22,14,06,27.70
2019,05,22,14,07,27.70
2019,05,22,14,08,27.70
2019,05,22,14,09,27.70
2019,05,22,14,10,27.70
2019,05,22,14,11,27.70
2019,05,22,14,12,27.80
2019,05,22,14,13,27.80
2019,05,22,14,14,27.90
2019,05,22,14,15,27.90
2019,05,22,14,16,27.80
2019,05,22,14,17,27.80
2019,05,22,14,18,27.70
2019,05,22,14,19,27.70
2019,05,22,14,20,27.70
2019,05,22,14,21,27.70
2019,05,22,14,22,27.60
2019,05,22,14,23,27.70
2019,05,22,14,24,27.70
2019,05,22,14,25,27.70
2019,05,22,14,26,27.80
2019,05,22,14,27,27.90
2019,05,22,14,28,28.10
2019,05,22,14,29,28.30
2019,05,22,14,30,28.30
2019,05,22,14,31,28.50
2019,05,22,14,32,28.60
2019,05,22,14,33,28.70
2019,05,22,14,34,28.80
2019,05,22,14,35,28.90
2019,05,22,14,36,29.00
2019,05,22,14,37,29.10
2019,05,22,14,38,29.10
2019,05,22,14,39,29.20
2019,05,22,14,40,29.10
2019,05,22,14,41,29.10
2019,05,22,14,42,29.10
2019,05,22,14,43,29.10
2019,05,22,14,44,29.10
2019,05,22,14,45,29.10
2019,05,22,14,46,29.10
2019,05,22,14,47,28.90
2019,05,22,14,48,28.90
2019,05,22,14,49,28.80
2019,05,22,14,50,28.80
2019,05,22,14,51,28.70
2019,05,22,14,52,28.60
2019,05,22,14,53,28.60
2019,05,22,14,54,28.50
2019,05,22,14,55,28.60
2019,05,22,14,56,28.60
2019,05,22,14,57,28.70
2019,05,22,14,58,28.80
2019,05,22,14,59,28.80
2019,05,22,15,00,28.80
2019,05,22,15,01,28.70
2019,05,22,15,02,28.60
2019,05,22,15,03,28.50
2019,05,22,15,04,28.40
2019,05,22,15,05,28.30
2019,05,22,15,06,28.30
2019,05,22,15,07,28.30
2019,05,22,15,08,28.20
2019,05,22,15,09,28.10
2019,05,22,15,10,28.00
2019,05,22,15,11,27.90
2019,05,22,15,12,27.80
2019,05,22,15,13,27.80
2019,05,22,15,14,27.80
2019,05,22,15,15,27.90
2019,05,22,15,16,28.00
2019,05,22,15,17,28.10
2019,05,22,15,18,28.20
2019,05,22,15,19,28.20
2019,05,22,15,20,28.40
2019,05,22,15,21,28.50
2019,05,22,15,22,28.60
2019,05,22,15,23,28.60
2019,05,22,15,24,28.60
2019,05,22,15,25,28.60
2019,05,22,15,26,28.40
2019,05,22,15,27,28.40
2019,05,22,15,28,28.40
2019,05,22,15,29,28.40
2019,05,22,15,30,28.40
2019,05,22,15,31,28.60
2019,05,22,15,32,28.70
2019,05,22,15,33,28.80
2019,05,22,15,34,28.90
2019,05,22,15,35,29.00
2019,05,22,15,36,29.20
2019,05,22,15,37,29.30
2019,05,22,15,38,29.30
2019,05,22,15,39,29.30
2019,05,22,15,40,29.20
2019,05,22,15,41,29.30
2019,05,22,15,42,29.20
2019,05,22,15,43,29.10
2019,05,22,15,44,29.10
2019,05,22,15,45,29.00
2019,05,22,15,46,28.90
2019,05,22,15,47,28.90
2019,05,22,15,48,28.80
2019,05,22,15,49,28.90
2019,05,22,15,50,28.90
2019,05,22,15,51,28.80
2019,05,22,15,52,28.80
2019,05,22,15,53,28.70
2019,05,22,15,54,28.70
2019,05,22,15,55,28.70
2019,05,22,15,56,28.80
2019,05,22,15,57,28.80
2019,05,22,15,58,28.80
2019,05,22,15,59,28.80
2019,05,22,16,00,28.80
2019,05,22,16,01,28.90
2019,05,22,16,02,28.90
2019,05,22,16,03,29.00
2019,05,22,16,04,29.00
2019,05,22,16,05,28.90
2019,05,22,16,06,28.80
2019,05,22,16,07,28.70
2019,05,22,16,08,28.60
2019,05,22,16,09,28.50
2019,05,22,16,10,28.50
2019,05,22,16,11,28.50
2019,05,22,16,12,28.60
2019,05,22,16,13,28.50
2019,05,22,16,14,28.40
2019,05,22,16,15,28.40
2019,05,22,16,16,28.50
2019,05,22,16,17,28.70
2019,05,22,16,18,28.80
2019,05,22,16,19,28.80
2019,05,22,16,20,28.90
2019,05,22,16,21,28.90
2019,05,22,16,22,28.90
2019,05,22,16,23,29.00
2019,05,22,16,24,29.10
2019,05,22,16,25,29.10
2019,05,22,16,26,29.20
2019,05,22,16,27,29.20
2019,05,22,16,28,29.30
2019,05,22,16,29,29.30
2019,05,22,16,30,29.30
2019,05,22,16,31,29.40
2019,05,22,16,32,29.40
2019,05,22,16,33,29.40
2019,05,22,16,34,29.30
2019,05,22,16,35,29.30
2019,05,22,16,36,29.30
2019,05,22,16,37,29.20
2019,05,22,16,38,29.20
2019,05,22,16,39,29.10
2019,05,22,16,40,29.10
2019,05,22,16,41,29.10
2019,05,22,16,42,29.10
2019,05,22,16,43,29.10
2019,05,22,16,44,29.10
2019,05,22,16,45,29.00
2019,05,22,16,46,28.80
2019,05,22,16,47,28.70
2019,05,22,16,48,28.60
2019,05,22,16,49,28.40
2019,05,22,16,50,28.30
2019,05,22,16,51,28.30
2019,05,22,16,52,28.30
2019,05,22,16,53,28.40
2019,05,22,16,54,28.50
2019,05,22,16,55,28.60
2019,05,22,16,56,28.60
2019,05,22,16,57,28.70
2019,05,22,16,58,28.80
2019,05,22,16,59,28.80
2019,05,22,17,00,28.90
2019,05,22,17,01,28.80
2019,05,22,17,02,28.80
2019,05,22,17,03,28.70
2019,05,22,17,04,28.70
2019,05,22,17,05,28.60
2019,05,22,17,06,28.40
2019,05,22,17,07,28.20
2019,05,22,17,08,27.90
2019,05,22,17,09,27.80
2019,05,22,17,10,27.60
2019,05,22,17,11,27.50
2019,05,22,17,12,27.40
2019,05,22,17,13,27.30
2019,05,22,17,14,27.20
2019,05,22,17,15,26.90
2019,05,22,17,16,26.80
2019,05,22,17,17,26.70
2019,05,22,17,18,26.60
2019,05,22,17,19,26.60